GFSSE_850_dewp_297.txt.gz
Dewpoint
14 13 13 12 8 8 6 -2 -4 -2 1 4 5 2 3 6 7 7 8 6 9 8 9 8 8 8 9 10 10 11 11 11 12 9 3 4 5 5 4 4 6 10 10
13 13 13 11 9 9 5 -2 -3 -2 0 2 5 2 8 9 9 8 7 6 7 7 8 8 8 9 9 10 10 9 10 10 9 3 3 3 3 3 2 2 2 6 10
13 13 13 11 9 9 2 -3 -4 -2 -1 -0 3 2 7 8 9 8 5 6 7 8 8 9 10 10 10 10 9 9 8 7 5 3 3 3 2 1 1 1 1 1 5
13 13 12 10 10 8 1 -3 -5 -4 -2 -1 -0 4 6 6 8 4 5 6 6 8 8 11 11 11 11 11 11 10 9 9 6 5 3 2 3 3 1 1 -0 -1 -0
11 12 11 10 9 4 -0 -4 -5 -4 -2 -1 -2 3 3 2 7 3 4 4 5 7 9 11 12 12 12 12 11 11 10 9 7 4 4 7 8 7 6 3 2 1 -0
8 9 10 9 6 2 -2 -6 -6 -4 -1 -1 -2 -0 0 -0 -1 -1 2 3 5 6 9 11 12 12 12 12 11 10 10 10 10 9 7 7 5 2 1 2 2 1 1
6 6 6 4 2 1 -2 -4 -4 -2 -0 -0 -1 -1 -2 -1 0 -0 1 2 4 5 7 11 12 12 12 11 10 10 10 11 11 9 4 2 2 2 2 2 2 2 1
7 10 9 6 2 -0 -3 -4 -3 -1 1 1 -1 -1 -1 -1 -0 1 1 0 2 4 4 8 10 12 11 11 11 11 11 11 11 7 2 0 -1 -0 0 1 1 1 -1
12 13 13 11 6 4 3 -1 -2 -1 0 1 0 -1 -0 -0 0 -0 -0 -0 -0 1 2 4 9 11 11 12 12 12 11 10 9 6 1 -1 -1 -1 -0 0 -0 -1 -3
12 13 13 13 12 13 12 6 -0 -1 1 1 1 0 -0 1 2 1 1 -1 -2 -1 -1 1 4 10 10 11 11 10 10 10 10 10 9 5 -1 -1 -1 1 -0 -3 -5
12 12 13 13 13 13 13 12 10 7 5 5 3 2 1 1 1 3 3 1 -1 -3 -3 -3 -2 0 4 10 10 9 10 10 10 10 10 10 5 1 0 1 -0 -4 -6
8 6 8 11 13 13 13 12 12 13 11 10 8 7 9 9 7 5 6 7 5 1 -5 -6 -6 -5 -3 4 9 10 10 9 9 9 10 10 7 3 2 2 1 -3 -6
-2 -2 2 4 7 11 13 13 12 13 13 11 11 10 9 11 11 11 9 7 9 6 3 -1 -2 -6 6 9 9 10 9 9 9 8 9 10 10 4 3 3 2 -4 -6
-7 -7 -6 -3 1 4 8 11 12 13 12 13 12 11 10 10 10 11 11 11 10 9 6 3 6 2 5 7 11 10 9 9 9 9 9 10 10 6 4 4 3 -2 -6
-10 -10 -10 -9 -4 -0 0 4 7 10 12 13 13 13 13 10 10 10 11 12 11 10 9 9 6 8 9 10 10 11 10 10 9 10 9 9 10 9 8 5 6 3 -5
-15 -14 -13 -11 -10 -6 -2 1 3 6 8 9 11 12 12 13 11 10 10 11 12 11 10 9 10 11 10 10 11 11 10 11 11 10 9 9 10 9 9 6 5 6 2
-7 -9 -15 -14 -12 -10 -3 1 2 3 3 3 4 5 8 11 13 12 12 12 12 10 10 9 9 9 10 10 10 9 10 10 11 10 11 11 10 10 10 9 8 6 6
-5 -5 -6 -11 -15 -12 -9 -5 -1 -1 -2 -3 -2 -2 -2 1 4 8 11 12 12 12 12 11 10 9 9 8 9 9 9 10 10 10 10 12 11 10 11 10 9 10 8
-4 -4 -5 -6 -11 -13 -13 -10 -8 -6 -6 -6 -7 -7 -5 -3 -0 4 8 9 11 12 12 12 11 11 9 9 9 9 10 10 10 10 10 10 12 11 11 11 11 10 10
-4 -4 -4 -6 -8 -11 -13 -13 -12 -10 -9 -9 -9 -7 -8 -7 -5 -1 3 7 9 10 11 12 12 11 9 10 9 9 9 9 9 9 10 11 10 12 12 11 11 11 11
-3 -3 -4 -5 -4 -9 -13 -14 -14 -13 -13 -13 -11 -10 -10 -9 -7 -6 -1 4 6 8 10 10 11 10 8 9 11 10 9 9 9 10 9 9 10 10 12 11 11 11 11
-3 -3 -4 -3 -4 -5 -8 -11 -12 -13 -14 -14 -14 -14 -13 -13 -11 -9 -6 -3 2 5 8 10 10 11 10 10 10 11 11 10 9 9 10 9 8 9 9 9 10 10 10
-4 -3 -4 -4 -4 -4 -5 -9 -11 -12 -13 -14 -15 -16 -15 -15 -14 -13 -12 -9 -6 -1 4 7 9 9 9 10 11 11 11 11 10 10 9 10 9 8 8 9 9 9 9
-4 -4 -4 -3 -5 -5 -6 -8 -10 -11 -12 -13 -14 -14 -15 -16 -15 -15 -13 -12 -11 -8 -3 3 5 7 8 9 10 10 10 11 10 10 9 9 9 8 7 7 8 9 10
-4 -4 -3 -3 -4 -4 -5 -8 -10 -11 -11 -12 -14 -15 -16 -16 -17 -17 -16 -14 -13 -12 -10 -5 -2 3 5 7 8 9 10 10 10 10 10 10 9 9 9 6 7 8 8
-4 -3 -3 -3 -3 -4 -4 -5 -7 -11 -13 -15 -16 -15 -16 -17 -17 -17 -17 -17 -16 -15 -14 -11 -7 -4 -3 1 6 7 8 8 9 10 10 9 9 9 8 9 8 8 8

GFSSE_850_dewp_300.txt.gz
Dewpoint
14 13 10 7 8 4 -3 -3 -0 3 6 6 5 10 10 7 8 8 7 9 9 8 8 8 9 9 10 10 11 11 11 10 4 3 4 6 4 4 5 10 11 11 2
14 13 9 8 8 3 -3 -4 -1 0 3 5 5 9 8 8 10 10 7 7 7 8 9 9 9 9 9 9 10 9 8 5 2 2 2 3 2 2 3 5 11 12 12
13 12 9 9 8 2 -2 -3 -2 -1 -1 1 5 8 8 9 7 7 7 7 8 9 9 9 10 10 9 9 8 8 7 4 4 2 2 1 1 1 2 2 5 9 10
13 11 10 10 7 2 -1 -3 -2 -1 -1 -0 6 7 9 10 5 6 6 7 7 8 10 10 10 10 11 11 9 8 6 5 4 4 2 1 2 1 1 0 1 1 8
12 10 10 9 5 1 -2 -2 -2 -0 0 0 3 4 10 12 8 6 5 4 5 8 10 10 11 11 11 9 10 10 10 9 7 5 6 5 8 6 3 2 2 1 1
10 9 7 4 2 0 -2 -3 -2 1 0 0 2 2 3 5 5 5 4 4 5 8 10 11 11 12 11 10 9 10 10 11 10 7 4 4 3 8 3 2 4 2 2
6 3 1 1 0 -2 -3 -2 -1 1 1 0 1 1 2 2 3 3 4 4 5 8 11 11 11 12 10 10 10 11 11 11 8 5 3 3 2 2 2 2 2 2 -0
10 9 4 2 1 -0 -2 -2 -0 2 2 1 1 1 1 2 1 2 2 3 5 5 8 11 11 12 10 10 9 10 9 9 6 2 1 1 1 1 1 2 1 0 -1
13 12 12 8 8 9 3 -1 -1 1 2 2 2 2 2 1 1 1 2 2 2 3 5 8 10 11 10 10 10 7 8 9 9 9 8 2 -0 0 0 1 -0 -1 -3
12 13 13 13 13 13 11 6 2 1 1 2 2 2 3 4 3 3 1 1 2 2 2 4 9 10 10 10 9 7 9 9 9 10 10 9 3 1 -0 1 -1 -3 -5
11 11 12 13 12 13 13 12 12 11 8 4 2 4 3 4 6 7 7 5 2 -1 0 1 3 7 8 9 9 9 9 9 9 9 9 9 5 2 2 2 0 -4 -6
5 5 7 9 12 13 13 11 11 12 12 11 8 7 8 9 10 9 9 9 9 5 -2 -4 -2 -1 0 4 8 9 9 9 9 8 9 9 9 3 3 3 2 -3 -6
-8 -6 -3 1 4 7 12 13 13 12 12 11 10 10 9 10 10 10 10 9 9 9 6 2 -2 -5 -3 3 9 9 9 9 8 9 9 9 9 6 4 4 4 0 -5
-12 -11 -9 -6 -3 0 5 8 10 12 13 13 12 11 11 10 10 10 10 10 10 9 9 6 6 -3 7 9 10 11 10 8 8 8 8 9 9 9 6 4 5 4 -3
-14 -14 -13 -11 -9 -5 -2 1 4 7 9 10 12 12 12 13 11 10 10 10 11 11 10 9 8 10 7 9 9 11 11 10 10 9 8 9 9 10 9 8 5 5 4
-7 -9 -15 -15 -11 -8 -7 -2 -1 0 1 2 4 7 9 11 13 12 11 10 10 11 10 10 10 10 9 9 10 11 11 10 10 10 10 10 10 9 10 9 6 5 6
-6 -7 -8 -13 -14 -12 -10 -9 -8 -7 -6 -5 -4 -4 -2 2 7 10 12 13 11 10 10 10 9 9 9 9 9 9 9 9 10 10 10 10 11 11 10 11 9 8 7
-6 -6 -8 -9 -13 -14 -12 -10 -10 -10 -11 -10 -10 -9 -8 -5 -2 3 7 8 10 12 12 12 11 10 10 9 9 8 8 8 9 10 10 10 10 10 11 10 11 10 10
-4 -6 -8 -7 -10 -13 -13 -11 -11 -12 -12 -12 -12 -11 -11 -10 -7 -4 -0 3 8 9 11 12 12 11 11 8 9 9 9 8 9 9 9 10 10 10 11 11 11 11 11
-5 -6 -6 -6 -8 -11 -13 -13 -14 -14 -14 -14 -14 -14 -13 -12 -11 -9 -7 -2 2 5 7 10 10 11 11 11 9 9 9 9 9 9 9 9 9 10 10 10 11 12 11
-5 -5 -5 -7 -8 -11 -12 -13 -13 -14 -15 -15 -15 -15 -15 -14 -14 -13 -11 -9 -6 -1 4 7 9 10 11 10 6 4 7 10 10 8 9 10 10 10 10 10 9 11 11
-4 -4 -4 -6 -8 -9 -10 -11 -12 -12 -13 -14 -15 -16 -17 -16 -15 -14 -14 -13 -12 -9 -5 0 3 7 9 9 10 10 10 9 9 9 9 9 9 10 10 10 10 9 9
-4 -4 -4 -4 -6 -8 -10 -12 -12 -12 -13 -13 -14 -15 -16 -17 -17 -18 -16 -14 -14 -12 -10 -7 -4 1 3 6 8 9 10 11 11 10 10 9 9 10 10 9 9 9 9
-4 -4 -3 -4 -6 -7 -8 -12 -18 -19 -17 -15 -14 -15 -16 -17 -17 -18 -18 -18 -17 -16 -14 -12 -8 -6 -5 -2 0 7 7 8 9 10 9 8 9 8 9 9 8 7 8
-3 -4 -4 -3 -4 -6 -7 -8 -11 -15 -17 -19 -20 -19 -17 -17 -18 -18 -19 -19 -19 -19 -18 -18 -16 -12 -6 -3 -2 3 4 5 8 8 9 10 10 9 9 8 8 9 9
-6 -5 -4 -4 -4 -4 -5 -7 -7 -7 -9 -11 -18 -21 -21 -21 -20 -19 -19 -20 -21 -21 -21 -20 -18 -16 -14 -8 -3 0 4 5 5 6 6 7 9 9 9 8 8 8 8

GFSSE_850_dewp_303.txt.gz
Dewpoint
12 8 7 5 2 -1 0 2 5 6 5 8 10 8 8 9 9 10 9 9 8 9 9 8 9 10 10 11 11 10 5 2 3 3 4 3 3 8 11 12 7 -1 0
12 8 8 6 2 -1 0 2 3 6 5 8 9 9 9 10 9 8 7 7 7 6 8 8 9 9 9 8 7 6 3 2 1 1 -0 -0 0 2 9 11 12 11 4
10 9 9 7 2 -1 -1 1 1 5 6 8 8 9 8 8 10 8 8 9 9 7 8 8 8 8 8 7 6 5 3 3 2 0 -0 1 -1 1 2 7 10 11 11
10 10 10 6 1 -1 -1 -1 1 0 5 7 7 9 9 6 7 7 6 7 9 9 9 9 9 9 9 8 5 6 5 3 3 2 1 5 0 -0 -0 1 5 9 10
11 10 7 2 -1 -2 -2 -1 1 1 2 7 7 9 11 9 6 5 5 7 8 8 9 9 9 8 9 10 9 9 8 7 5 6 4 8 10 2 1 0 0 1 4
9 7 3 -1 -3 -4 -3 -1 1 2 1 5 7 8 10 11 6 5 5 5 7 9 9 10 10 10 10 9 9 8 6 4 3 3 2 2 6 2 1 1 1 1 2
6 3 1 -2 -3 -4 -3 -0 1 2 1 2 5 7 5 6 6 6 5 6 8 10 11 11 11 10 10 9 9 8 6 2 1 -0 1 1 1 1 1 0 -1 -3 -4
12 7 3 3 2 -2 -2 -1 1 1 1 1 1 2 4 5 5 5 6 6 7 10 11 11 11 10 10 9 8 6 7 8 7 3 -0 0 1 0 1 0 -2 -3 -4
13 13 9 12 12 7 1 -1 0 1 1 2 1 1 1 2 3 4 5 5 6 7 8 11 11 11 10 10 9 9 9 9 9 9 7 2 0 0 1 0 -2 -4 -5
12 12 12 12 13 12 11 9 10 4 3 1 1 1 2 3 3 3 3 3 4 5 6 8 10 11 10 9 9 9 10 10 10 10 9 6 2 1 1 1 -2 -5 -6
9 10 12 12 12 12 12 12 12 11 10 5 4 3 3 4 4 6 7 6 4 2 3 4 6 9 10 9 9 9 9 9 9 9 10 9 5 2 2 2 1 -4 -6
-3 -1 1 6 9 12 13 13 12 12 12 11 10 7 8 9 9 8 8 8 9 6 3 -0 1 2 3 3 8 9 9 8 9 9 9 9 9 4 3 3 3 -1 -6
-11 -11 -9 -5 -2 3 7 11 13 13 13 12 11 10 10 9 10 10 10 9 9 9 8 6 2 -1 -2 -0 5 10 10 9 9 8 9 9 9 7 5 4 4 2 -4
-16 -14 -11 -9 -6 -3 -0 2 7 9 11 12 12 12 11 11 10 10 9 10 10 10 9 9 7 5 -2 2 8 10 11 11 10 10 9 9 9 9 9 7 5 5 1
-10 -13 -16 -13 -11 -9 -7 -4 -2 -2 0 3 6 9 11 12 13 11 10 9 10 11 11 10 9 9 5 8 10 9 11 12 10 11 9 10 10 9 9 9 7 5 5
-7 -9 -11 -15 -15 -12 -12 -11 -11 -9 -7 -6 -5 -4 -1 4 8 11 12 11 10 10 10 9 9 9 9 8 9 10 11 11 11 10 9 10 11 10 10 10 9 7 6
-8 -9 -9 -12 -13 -13 -13 -12 -12 -12 -11 -12 -11 -10 -7 -5 -2 2 7 10 12 11 11 10 9 9 9 9 8 9 8 8 9 9 9 10 10 11 11 10 11 9 9
-9 -7 -7 -11 -13 -13 -13 -13 -14 -14 -14 -14 -13 -12 -12 -11 -9 -6 -2 1 5 7 9 11 11 10 9 9 9 9 8 9 8 8 10 10 10 10 10 11 11 11 10
-6 -7 -7 -9 -12 -13 -13 -14 -15 -15 -15 -15 -15 -15 -14 -13 -12 -11 -9 -6 -1 1 2 4 8 11 11 8 3 9 9 8 8 8 8 8 9 10 10 10 10 11 11
-6 -7 -7 -8 -10 -11 -12 -13 -14 -15 -15 -15 -16 -16 -15 -15 -14 -14 -13 -11 -10 -8 -4 -1 3 8 10 11 8 8 6 7 8 9 9 9 9 9 9 10 10 10 9
-6 -8 -10 -10 -10 -11 -11 -12 -12 -13 -14 -14 -15 -15 -16 -17 -17 -16 -15 -14 -14 -12 -10 -7 -4 3 7 8 9 11 10 8 5 6 9 10 9 10 10 9 10 10 10
-5 -6 -7 -10 -12 -13 -15 -16 -15 -13 -13 -14 -14 -15 -15 -16 -16 -17 -17 -18 -17 -16 -14 -13 -12 -9 -4 2 7 8 9 8 10 10 9 8 9 10 10 10 10 10 10
-5 -5 -5 -7 -9 -11 -12 -14 -19 -22 -23 -22 -20 -17 -16 -16 -17 -17 -18 -18 -18 -19 -19 -19 -17 -14 -11 -7 -1 7 8 8 7 9 10 10 10 10 9 9 10 9 9
-4 -5 -5 -6 -7 -8 -9 -10 -11 -14 -16 -19 -23 -23 -23 -23 -21 -20 -19 -19 -19 -20 -20 -20 -19 -19 -16 -12 -7 -3 3 5 7 6 3 6 9 9 9 9 10 9 9
-4 -4 -5 -5 -5 -6 -8 -9 -9 -9 -10 -12 -15 -22 -24 -24 -24 -24 -24 -23 -22 -21 -22 -22 -22 -21 -20 -17 -11 -7 -3 2 6 5 6 5 3 6 6 9 9 9 9
-6 -5 -6 -6 -6 -7 -8 -8 -9 -10 -10 -11 -11 -14 -20 -23 -23 -24 -24 -24 -24 -23 -23 -23 -24 -24 -23 -22 -19 -13 -5 3 4 4 4 5 5 2 3 5 4 7 9

GFSSE_850_dewp_306.txt.gz
Dewpoint
13 13 9 8 1 2 4 6 7 6 9 9 8 9 9 9 9 8 9 8 9 8 8 8 9 10 10 9 5 2 1 2 2 1 1 8 11 11 9 3 9 6 3
13 12 7 3 -0 -1 1 5 6 6 9 9 9 9 11 10 10 8 6 7 7 7 7 8 7 7 6 5 3 1 1 -0 -1 -1 -1 1 7 11 12 12 9 1 -0
13 13 9 2 -1 -2 -1 1 4 6 9 9 9 9 9 10 8 8 9 9 7 7 7 7 7 7 6 4 2 1 1 1 -0 -0 9 9 2 4 9 11 11 10 8
13 11 7 2 -2 -4 -1 1 1 6 7 8 11 10 8 8 9 7 8 9 8 8 9 8 9 9 7 7 6 4 2 2 2 10 9 9 7 -1 1 4 8 11 11
11 9 3 0 -3 -4 -1 1 1 2 5 6 9 10 10 9 7 8 8 9 8 8 8 9 9 9 9 9 8 6 4 2 7 10 10 11 11 -0 -1 -1 1 4 6
10 7 1 -2 -3 -3 -1 1 1 0 2 3 6 9 10 9 7 7 8 8 9 9 9 10 11 10 9 9 7 6 2 5 11 10 10 11 10 -1 -1 -1 -1 -1 0
3 2 1 -1 -3 -3 -1 1 2 2 1 1 2 5 6 6 6 7 7 9 10 11 11 10 11 10 9 9 8 5 2 6 10 10 10 10 4 0 -1 -2 -4 -5 -5
10 6 9 10 3 -2 -2 -0 1 1 1 1 2 3 3 4 5 6 7 8 10 11 11 11 11 11 10 10 7 8 9 8 11 10 11 10 0 1 -0 -2 -4 -5 -5
12 11 12 13 12 8 3 4 1 0 0 -0 0 1 2 3 4 4 5 6 7 8 9 11 11 11 11 11 9 9 9 10 12 12 11 10 1 0 1 -1 -4 -5 -6
11 11 12 12 13 13 13 12 11 8 2 1 1 0 2 3 4 5 4 4 5 6 6 8 10 11 11 10 10 10 10 10 12 12 11 8 2 1 2 1 -2 -4 -6
4 7 7 11 12 13 13 13 13 12 11 9 5 4 7 11 11 11 7 6 4 2 3 4 5 8 10 10 9 9 10 12 11 11 11 9 5 2 3 3 1 -3 -5
0 -4 -1 2 4 9 12 13 13 13 13 11 11 8 7 9 9 8 8 8 8 6 4 1 -1 1 2 8 8 9 11 11 11 11 11 9 9 5 3 4 3 0 -4
-0 -4 -2 -5 -2 0 4 8 9 11 12 13 13 12 11 10 9 11 11 12 12 11 11 11 10 8 8 6 7 10 11 11 10 10 11 9 9 9 8 5 5 3 -2
-4 -7 -9 -11 -10 -8 1 -2 3 3 5 6 9 12 12 12 11 11 10 10 12 12 11 12 10 11 10 6 -0 9 11 11 11 11 11 9 9 9 9 9 6 5 4
-4 -6 -11 -16 -15 -13 -12 -11 -12 -8 -8 -5 -5 -2 3 8 11 12 11 11 10 10 11 12 12 11 11 10 11 11 11 12 13 12 11 10 10 10 9 9 9 6 6
-3 -3 -4 -13 -15 -15 -15 -15 -13 -13 -9 -10 -10 -10 -8 -5 -1 5 9 11 12 11 10 10 11 12 12 11 11 12 12 12 12 13 12 12 10 10 11 10 10 9 7
-3 -3 -6 -6 -15 -15 -14 -13 -13 -14 -12 -13 -11 -12 -12 -12 -10 -6 -0 4 5 8 10 11 11 10 11 12 10 9 10 9 11 11 11 11 11 10 10 11 11 11 9
-2 -2 -7 -8 -13 -15 -15 -15 -14 -15 -14 -13 -13 -15 -15 -15 -13 -11 -6 -8 -6 -3 6 7 9 10 11 9 7 4 9 8 7 7 10 11 13 11 11 9 10 11 11
-2 -2 -3 -11 -13 -13 -14 -14 -12 -13 -12 -12 -14 -16 -16 -16 -16 -14 -14 -13 -12 -5 1 2 7 8 7 11 6 8 9 9 8 9 7 8 7 11 11 11 10 9 10
-1 -2 -2 -4 -11 -10 -5 -4 -3 -3 -3 -7 -11 -15 -15 -16 -16 -16 -16 -17 -13 -8 -8 -12 -7 6 8 7 7 10 11 9 8 7 8 9 8 11 12 12 12 11 9
-2 -2 -2 -3 -5 -5 -6 -6 -5 -4 -4 -4 -4 -15 -16 -16 -16 -17 -16 -16 -17 -17 -18 -17 -14 -1 3 3 6 7 8 10 11 10 10 10 9 11 12 13 13 12 11
-2 -2 -3 -3 -3 -5 -6 -8 -17 -13 -13 -12 -20 -16 -23 -22 -21 -19 -19 -17 -19 -16 -19 -19 -19 -12 1 2 -5 6 6 8 9 10 10 11 11 11 11 12 12 13 13
-2 -2 -3 -2 -2 -3 -3 -6 -7 -7 -8 -7 -7 -9 -24 -25 -25 -26 -25 -25 -23 -20 -19 -20 -21 -18 -2 -0 2 4 5 7 5 7 7 10 10 9 10 11 11 12 12
-2 -2 -2 -2 -2 -4 -5 -4 -3 -6 -6 -4 -5 -8 -10 -25 -26 -26 -26 -26 -25 -21 -24 -23 -23 -19 -14 -2 -1 -7 0 6 6 4 3 4 5 4 7 8 8 9 11
-3 -2 -2 -2 -2 -3 -9 -5 -3 -3 -4 -4 -4 -3 -5 -11 -24 -25 -26 -25 -25 -18 -23 -24 -24 -25 -13 -7 -1 -3 -8 4 5 4 3 2 2 3 5 5 4 5 7
-3 -2 -1 -1 -2 -2 -5 -6 -5 -5 -4 -3 -2 -3 -4 -4 -6 -17 -24 -25 -25 -24 -23 -21 -23 -22 -24 -17 -18 -5 -4 2 2 2 4 2 1 -0 -9 4 7 7 7